Погода в Уюке

Поиск расширенной информации на нашем сайте:

Полезная информация:

Новости сайта



02.01.2020
Опубликован Долгосрочный прогноз погоды по городам России и ближнего зарубежья на январь 2020 года.
Карты: Прогноз на январь и февраль 2020 года, Сравнение прогнозируемой аномалии приземной температуры воздуха на январь 2020 года по разным моделям.




Погода в Уюке - сегодня

Время (UTC), дата Ветер
(°,м/с) 
Видим.   Явления Облачность Т
(°С)
Тd
(°С)
f(%) Тe
(°С)
Pmin
(гПа)
dP
(гПа)
Po
(мм)
O2
(г/м3)
Тmin Tmax R s Состояние
почвы
09 22.10.21 250 (З) 20000 м    9/8 600 м средняя 
[Sc|Ac lent]
+8.1 -2.7 46 +8  1033.1  -0.3  741  290           
12 22.10.21 200 (Ю) 20000 м    9/8 600 м средняя 
[Sc|Ac lent]
+7.8 -1.7 51 +9  1034.3  1.1  741  291           
15 22.10.21 230 (ЮЗ) 20000 м    9/4 600 м средняя, верхняя 
[Sc|Ac lent|Ci sp]
+5.9 -2.7 54 +7  1036.2  1.4  743  293    +8.1       
18 22.10.21 240 (ЮЗ) 20000 м    9/0 средняя, верхняя 
[Ac lent|Ci sp]
+3.8 -3.5 59 +5  1037.4  0.9  743  296    +8.1       
21 22.10.21 тихо ()   20000 м    10/0 средняя 
[Ac As]
+1.8 -4.7 62 +2  1038.2  0.4  743  298           
00 23.10.21 170 (Ю) 20000 м    10/0 средняя 
[Ac As]
+2 -4.1 64 +3  1037  -1  743  298           
03 23.10.21 тихо ()   20000 м    3/0 средняя 
[Ac lent]
+1.6 -2.8 73 +2  1037.4  0.3  743  298           
06 23.10.21 тихо ()   20000 м    1/0 верхняя 
[Ci sp]
+8.9 -0.9 50 +9  1035.6  -0.5  743  290  +1.2         
09 23.10.21 090 (В) 20000 м    3/0 верхняя 
[Ci sp]
+12 -0.5 42 +13  1033.4  -1.6  741  286           
12 23.10.21 100 (В) 20000 м    3/0 верхняя 
[Ci sp]
+12.7 -1.7 37 +14  1032.5  -0.9  741  285           
15 23.10.21 070 (В) 20000 м    3/0 верхняя 
[Ci sp]
+7.7 -3.8 44 +9  1033.6  0.3  741  291    +12.7       
18 23.10.21 тихо ()   20000 м    1/0 верхняя 
[Ci sp]
+4.1 -5.8 48 +4  1033.1  -0.9  740  294    +12.7       
21 23.10.21 090 (В) 20000 м    1/0 верхняя 
[Ci sp]
+1.1 -6.5 57 +2  1033  -0.7  740  298           
00 24.10.21 тихо ()   20000 м    1/0 верхняя 
[Ci sp]
+0.4 -5.8 63 1031  -1  738  298           
03 24.10.21 тихо ()   20000 м    ясно 
-1.4 -4.6 79 -1  1030.5  -0.9  738  299           
06 24.10.21 тихо ()   20000 м    ясно 
+7.8 -0.7 55 +8  1028.7  -0.3  737  289  -1.8         
09 24.10.21 090 (В) 20000 м    ясно 
+16 -0.5 32 +17  1026.3  -0.8  737  280           
12 24.10.21 050 (СВ) 20000 м    ясно 
+13.2 -4.7 28 +14  1024.2  -2.5  735  283           
15 24.10.21 020 (С) 20000 м    ясно 
+11 -3 37 +12  1021.2  -3.1  733  284    +16       
18 24.10.21 тихо ()   20000 м    ясно 
+6.3 -4.8 45 +6  1020.6  -1.4  731  289    +16       
21 24.10.21 тихо ()   20000 м    ясно 
+3 -5.8 52 +3  1020.7  -0.5  731  292           
00 25.10.21 тихо ()   20000 м    ясно 
-1.4 -6.5 68 -1  1019.6  -1.7  730  296           
03 25.10.21 тихо ()   20000 м    ясно 
-0.5 -4.3 75 -1  1019.4  730  295           
06 25.10.21 тихо ()   20000 м    ясно 
+9 -0.7 51 +9  1018  0.1  730  285  -1.8         
09 25.10.21 тихо ()   20000 м    ясно 
+16 -0.9 31 +16  1015.5  -1.3  729  277           
Время (UTC), дата Ветер
(°,м/с) 
Видим.   Явления Облачность Т
(°С)
Тd
(°С)
f(%) Тe
(°С)
Pmin
(гПа)
dP
(гПа)
Po
(мм)
O2
(г/м3)
Тmin Tmax R s Состояние
почвы

Для получения пояснительной информации подведите курсор к названию столбца.

ПОГОДА в Уюке - архив

Всё, что Вы хотите узнать о погоде в Уюке - удобно и подробно!

Выберите нужную дату (начиная с 1 января 2019* года) и нажмите кнопку "Найти".
Будут отображены архивные сводки погоды по пункту Уюк, начиная с указанной даты.


Отображать данные в формате CSV (для использования в таблицах Excel)


Внимание! Наш архив погоды предназначен исключительно для личного некоммерческого использования в познавательных целях. Если Вам необходимы официальные справки о состоянии погоды (для производственных, юридических, коммерческих и т.п. целей), обращайтесь в органы Росгидромета.

*Примечание: данная дата относится к архиву по метеостанциям СССР (Россия, СНГ, Балтия).
Архив по метеостанциям Зарубежной Европы и Азии (кроме Китая) хранится 10 дней, по другим регионам земного шара (Китай, Африка, Америка, Австралия, Океания) - 1 день.

Уюк - район местоположения метеостанции


Название, широта, долгота, высота метеостанции:
Уюк 43.8°ш. 70.9°д. 366 м над ур. моря [Казахстан]

Дополнительная информация

В oтличие oт бoльшинства пoгoдных сайтoв мы публикуем пoдрoбную метеoинфoрмацию в детальнoм прoфессиoнальнoм фoрмате.

Характеристики температуры и влажнoсти вoздуха измеряются на высoте 2 м в тени вдали oт зданий и деревьев.
Скoрoсть ветра измеряется на высoте 10 м (на урoвне рoста челoвека скoрoсть ветра ниже в 1.5-2 раза). Если метеoстанция нахoдится в гoрoде или в лесу, тo скoрoсть ветра занижена на 2-4 м/с пo сравнению с oткрытым местoм. Скoрoсть ветра над акватoриями крупных рек и oзёр, а также на вершинах хoлмoв на 2-5 м/с выше, чем в oбычных услoвиях.
Атмoсфернoе давление в разных тoчках местнoсти мoжет значительнo oтличаться oт давления на метеoстанции, в зависимoсти oт услoвий рельефа (при пoдъёме на 10 м давление пoнижается примернo на 1 мм рт.ст.).